Time,TemperatureF,DewpointF,PressureIn,WindDirection,WindDirectionDegrees,WindSpeedMPH,WindSpeedGustMPH,Humidity,HourlyPrecipIn,Conditions,Clouds,dailyrainin,SolarRadiationWatts/m^2,SoftwareType,DateUTC
2013-09-22 00:00:00,74.7,74.0,29.79,West,275,0.0,-999.0,97,-99.99,,,0.00,0,weatherlink.com 1.10,2013-09-22 04:00:00,
2013-09-22 00:15:00,74.6,74.0,29.79,West,275,0.0,-999.0,97,-99.99,,,0.00,0,weatherlink.com 1.10,2013-09-22 04:15:00,
2013-09-22 00:30:00,74.2,74.0,29.79,SW,223,0.0,-999.0,98,-99.99,,,0.00,0,weatherlink.com 1.10,2013-09-22 04:30:00,
2013-09-22 00:45:00,74.2,74.0,29.79,SW,223,0.0,-999.0,98,-99.99,,,0.00,0,weatherlink.com 1.10,2013-09-22 04:45:00,
2013-09-22 01:00:00,73.9,73.0,29.78,SW,223,0.0,-999.0,98,-99.99,,,0.00,0,weatherlink.com 1.10,2013-09-22 05:00:00,
2013-09-22 01:16:00,73.5,73.0,29.78,SW,223,0.0,-999.0,98,-99.99,,,0.00,0,weatherlink.com 1.10,2013-09-22 05:16:00,
2013-09-22 01:31:00,73.3,73.0,29.79,SW,223,0.0,-999.0,99,-99.99,,,0.00,0,weatherlink.com 1.10,2013-09-22 05:31:00,
2013-09-22 01:45:00,73.0,73.0,29.78,SW,223,0.0,-999.0,99,-99.99,,,0.00,0,weatherlink.com 1.10,2013-09-22 05:45:00,
2013-09-22 02:01:00,73.0,73.0,29.78,SW,223,0.0,-999.0,100,-99.99,,,0.00,0,weatherlink.com 1.10,2013-09-22 06:01:00,
2013-09-22 02:16:00,73.0,73.0,29.78,SW,223,0.0,-999.0,100,-99.99,,,0.00,0,weatherlink.com 1.10,2013-09-22 06:16:00,
2013-09-22 02:31:00,73.0,73.0,29.77,SW,223,0.0,-999.0,100,-99.99,,,0.00,0,weatherlink.com 1.10,2013-09-22 06:31:00,
2013-09-22 02:46:00,73.2,73.0,29.77,SW,223,0.0,-999.0,100,-99.99,,,0.00,0,weatherlink.com 1.10,2013-09-22 06:46:00,
2013-09-22 03:01:00,73.2,73.0,29.77,SW,223,0.0,-999.0,100,-99.99,,,0.00,0,weatherlink.com 1.10,2013-09-22 07:01:00,
2013-09-22 03:16:00,73.2,73.0,29.77,SW,223,0.0,-999.0,100,-99.99,,,0.00,0,weatherlink.com 1.10,2013-09-22 07:16:00,
2013-09-22 03:31:00,73.2,73.0,29.77,SW,223,0.0,-999.0,100,-99.99,,,0.00,0,weatherlink.com 1.10,2013-09-22 07:31:00,
2013-09-22 03:46:00,73.0,73.0,29.76,SW,223,0.0,-999.0,100,-99.99,,,0.00,0,weatherlink.com 1.10,2013-09-22 07:46:00,
2013-09-22 04:01:00,73.0,73.0,29.76,SW,223,0.0,-999.0,100,-99.99,,,0.00,0,weatherlink.com 1.10,2013-09-22 08:01:00,
2013-09-22 04:16:00,73.0,73.0,29.76,SW,223,0.0,-999.0,100,-99.99,,,0.00,0,weatherlink.com 1.10,2013-09-22 08:16:00,
2013-09-22 04:31:00,73.0,73.0,29.76,SW,223,0.0,-999.0,100,-99.99,,,0.00,0,weatherlink.com 1.10,2013-09-22 08:31:00,
2013-09-22 04:46:00,72.7,73.0,29.76,SW,223,0.0,-999.0,100,-99.99,,,0.00,0,weatherlink.com 1.10,2013-09-22 08:46:00,
2013-09-22 05:01:00,72.5,73.0,29.76,SW,223,0.0,-999.0,100,-99.99,,,0.00,0,weatherlink.com 1.10,2013-09-22 09:01:00,
2013-09-22 05:16:00,72.7,73.0,29.75,SW,223,0.0,-999.0,100,-99.99,,,0.00,0,weatherlink.com 1.10,2013-09-22 09:16:00,
2013-09-22 05:31:00,72.7,73.0,29.75,SW,223,0.0,-999.0,100,-99.99,,,0.00,0,weatherlink.com 1.10,2013-09-22 09:31:00,
2013-09-22 05:46:00,72.7,73.0,29.75,SW,223,0.0,-999.0,100,-99.99,,,0.00,0,weatherlink.com 1.10,2013-09-22 09:46:00,
2013-09-22 06:01:00,72.5,73.0,29.75,SW,223,0.0,-999.0,100,-99.99,,,0.00,0,weatherlink.com 1.10,2013-09-22 10:01:00,
2013-09-22 06:16:00,72.5,73.0,29.75,SW,223,0.0,-999.0,100,-99.99,,,0.00,0,weatherlink.com 1.10,2013-09-22 10:16:00,
2013-09-22 06:31:00,72.3,72.0,29.76,SW,223,0.0,-999.0,100,-99.99,,,0.00,0,weatherlink.com 1.10,2013-09-22 10:31:00,
2013-09-22 06:46:00,72.3,72.0,29.76,SW,223,0.0,-999.0,100,-99.99,,,0.00,0,weatherlink.com 1.10,2013-09-22 10:46:00,
2013-09-22 07:01:00,72.1,72.0,29.75,SW,223,0.0,-999.0,100,-99.99,,,0.00,0,weatherlink.com 1.10,2013-09-22 11:01:00,
2013-09-22 07:16:00,72.1,72.0,29.76,SW,223,0.0,-999.0,100,-99.99,,,0.00,0,weatherlink.com 1.10,2013-09-22 11:16:00,
2013-09-22 07:31:00,72.3,72.0,29.77,SW,223,0.0,-999.0,100,-99.99,,,0.00,18,weatherlink.com 1.10,2013-09-22 11:31:00,
2013-09-22 07:46:00,72.5,73.0,29.77,SW,223,0.0,-999.0,100,-99.99,,,0.00,25,weatherlink.com 1.10,2013-09-22 11:46:00,
2013-09-22 08:01:00,72.8,73.0,29.78,SW,223,0.0,-999.0,100,-99.99,,,0.00,30,weatherlink.com 1.10,2013-09-22 12:01:00,
2013-09-22 08:16:00,73.0,73.0,29.78,SW,223,0.0,-999.0,100,-99.99,,,0.00,28,weatherlink.com 1.10,2013-09-22 12:16:00,
2013-09-22 08:31:00,73.3,73.0,29.78,SSW,200,0.0,-999.0,100,-99.99,,,0.00,144,weatherlink.com 1.10,2013-09-22 12:31:00,
2013-09-22 08:46:00,74.9,75.0,29.79,SSE,163,0.0,-999.0,99,-99.99,,,0.00,206,weatherlink.com 1.10,2013-09-22 12:46:00,
2013-09-22 09:01:00,76.5,74.0,29.79,SSE,158,0.0,-999.0,93,-99.99,,,0.00,257,weatherlink.com 1.10,2013-09-22 13:01:00,
2013-09-22 09:31:00,79.9,74.0,29.80,South,176,5.0,-999.0,83,-99.99,,,0.00,373,weatherlink.com 1.10,2013-09-22 13:31:00,
2013-09-22 09:46:00,81.4,75.0,29.80,South,180,2.0,-999.0,80,-99.99,,,0.00,411,weatherlink.com 1.10,2013-09-22 13:46:00,
2013-09-22 10:01:00,82.2,76.0,29.80,SW,223,0.0,-999.0,80,-99.99,,,0.00,473,weatherlink.com 1.10,2013-09-22 14:01:00,
2013-09-22 10:16:00,82.8,76.0,29.80,SSW,212,0.0,-999.0,79,-99.99,,,0.00,452,weatherlink.com 1.10,2013-09-22 14:16:00,
2013-09-22 10:31:00,84.0,76.0,29.80,SSW,192,0.0,-999.0,77,-99.99,,,0.00,657,weatherlink.com 1.10,2013-09-22 14:31:00,
2013-09-22 10:46:00,84.0,76.0,29.80,WSW,257,2.0,-999.0,76,-99.99,,,0.00,185,weatherlink.com 1.10,2013-09-22 14:46:00,
2013-09-22 11:01:00,84.5,75.0,29.80,South,180,8.0,-999.0,72,-99.99,,,0.00,722,weatherlink.com 1.10,2013-09-22 15:01:00,
2013-09-22 11:16:00,85.9,75.0,29.80,West,264,7.0,-999.0,70,-99.99,,,0.00,729,weatherlink.com 1.10,2013-09-22 15:16:00,
2013-09-22 11:31:00,85.3,75.0,29.80,SSE,165,0.0,-999.0,70,-99.99,,,0.00,860,weatherlink.com 1.10,2013-09-22 15:31:00,
2013-09-22 11:46:00,87.2,75.0,29.80,SSW,197,7.0,-999.0,68,-99.99,,,0.00,900,weatherlink.com 1.10,2013-09-22 15:46:00,
2013-09-22 12:01:00,87.6,76.0,29.79,SW,216,1.0,-999.0,68,-99.99,,,0.00,877,weatherlink.com 1.10,2013-09-22 16:01:00,
2013-09-22 12:16:00,87.2,75.0,29.79,South,183,3.0,-999.0,67,-99.99,,,0.00,246,weatherlink.com 1.10,2013-09-22 16:16:00,
2013-09-22 12:31:00,87.8,75.0,29.79,South,176,6.0,-999.0,65,-99.99,,,0.00,1005,weatherlink.com 1.10,2013-09-22 16:31:00,
2013-09-22 12:46:00,88.8,75.0,29.79,SSE,166,0.0,-999.0,64,-99.99,,,0.00,997,weatherlink.com 1.10,2013-09-22 16:46:00,
2013-09-22 13:01:00,89.3,75.0,29.78,West,261,2.0,-999.0,63,-99.99,,,0.00,977,weatherlink.com 1.10,2013-09-22 17:01:00,
2013-09-22 13:16:00,89.5,74.0,29.78,SSW,211,6.0,-999.0,60,-99.99,,,0.00,394,weatherlink.com 1.10,2013-09-22 17:16:00,
2013-09-22 13:31:00,89.7,75.0,29.77,South,184,6.0,-999.0,63,-99.99,,,0.00,1085,weatherlink.com 1.10,2013-09-22 17:31:00,
2013-09-22 13:46:00,89.7,74.0,29.77,South,172,5.0,-999.0,61,-99.99,,,0.00,1020,weatherlink.com 1.10,2013-09-22 17:46:00,
2013-09-22 14:01:00,87.6,76.0,29.77,WSW,238,4.0,-999.0,68,-99.99,,,0.00,132,weatherlink.com 1.10,2013-09-22 18:01:00,
2013-09-22 14:16:00,83.2,76.0,29.77,WSW,240,3.0,-999.0,79,-99.99,,,0.00,251,weatherlink.com 1.10,2013-09-22 18:16:00,
2013-09-22 14:31:00,83.2,77.0,29.77,West,264,5.0,-999.0,81,-99.99,,,0.00,271,weatherlink.com 1.10,2013-09-22 18:31:00,
2013-09-22 14:46:00,87.0,75.0,29.76,WSW,250,4.0,-999.0,67,-99.99,,,0.00,849,weatherlink.com 1.10,2013-09-22 18:46:00,
2013-09-22 15:01:00,89.7,74.0,29.75,WSW,254,6.0,-999.0,61,-99.99,,,0.00,371,weatherlink.com 1.10,2013-09-22 19:01:00,
2013-09-22 15:16:00,89.0,75.0,29.75,West,264,3.0,-999.0,63,-99.99,,,0.00,359,weatherlink.com 1.10,2013-09-22 19:16:00,
2013-09-22 15:31:00,84.9,76.0,29.75,WSW,252,3.0,-999.0,74,-99.99,,,0.00,127,weatherlink.com 1.10,2013-09-22 19:31:00,
2013-09-22 15:46:00,83.8,76.0,29.75,WSW,250,0.0,-999.0,76,-99.99,,,0.00,111,weatherlink.com 1.10,2013-09-22 19:46:00,
2013-09-22 16:01:00,80.5,76.0,29.75,SSW,205,3.0,-999.0,85,-99.99,,,0.03,139,weatherlink.com 1.10,2013-09-22 20:01:00,
2013-09-22 16:16:00,80.1,77.0,29.75,NNE,24,0.0,-999.0,89,-99.99,,,0.03,135,weatherlink.com 1.10,2013-09-22 20:16:00,
2013-09-22 16:31:00,80.1,78.0,29.76,NNE,24,0.0,-999.0,92,-99.99,,,0.03,105,weatherlink.com 1.10,2013-09-22 20:31:00,
2013-09-22 17:01:00,81.8,79.0,29.75,NNE,24,0.0,-999.0,91,-99.99,,,0.03,183,weatherlink.com 1.10,2013-09-22 21:01:00,
2013-09-22 17:16:00,81.8,79.0,29.75,NNE,24,0.0,-999.0,90,-99.99,,,0.03,262,weatherlink.com 1.10,2013-09-22 21:16:00,
2013-09-22 17:31:00,83.0,79.0,29.76,NNE,24,0.0,-999.0,86,-99.99,,,0.03,281,weatherlink.com 1.10,2013-09-22 21:31:00,
2013-09-22 17:46:00,84.1,80.0,29.75,NNE,24,0.0,-999.0,86,-99.99,,,0.03,336,weatherlink.com 1.10,2013-09-22 21:46:00,
2013-09-22 18:01:00,84.0,79.0,29.76,SSW,196,0.0,-999.0,84,-99.99,,,0.03,155,weatherlink.com 1.10,2013-09-22 22:01:00,
2013-09-22 18:16:00,82.6,78.0,29.77,ENE,68,4.0,-999.0,86,-99.99,,,0.03,111,weatherlink.com 1.10,2013-09-22 22:16:00,
2013-09-22 18:31:00,80.7,77.0,29.77,NNE,32,2.0,-999.0,88,-99.99,,,0.03,193,weatherlink.com 1.10,2013-09-22 22:31:00,
2013-09-22 18:46:00,80.5,77.0,29.78,NE,54,0.0,-999.0,88,-99.99,,,0.03,44,weatherlink.com 1.10,2013-09-22 22:46:00,
2013-09-22 19:01:00,79.8,77.0,29.78,NE,54,0.0,-999.0,90,-99.99,,,0.03,21,weatherlink.com 1.10,2013-09-22 23:01:00,
2013-09-22 19:16:00,79.2,76.0,29.78,NE,54,0.0,-999.0,91,-99.99,,,0.03,0,weatherlink.com 1.10,2013-09-22 23:16:00,
2013-09-22 19:31:00,78.6,77.0,29.78,NE,54,0.0,-999.0,93,-99.99,,,0.03,0,weatherlink.com 1.10,2013-09-22 23:31:00,
2013-09-22 19:46:00,78.1,76.0,29.79,NE,54,0.0,-999.0,94,-99.99,,,0.03,0,weatherlink.com 1.10,2013-09-22 23:46:00,
2013-09-22 20:01:00,77.7,76.0,29.79,NE,54,0.0,-999.0,95,-99.99,,,0.03,0,weatherlink.com 1.10,2013-09-23 00:01:00,
2013-09-22 20:16:00,77.4,76.0,29.79,NE,54,0.0,-999.0,95,-99.99,,,0.03,0,weatherlink.com 1.10,2013-09-23 00:16:00,
2013-09-22 20:31:00,77.2,76.0,29.80,NE,54,0.0,-999.0,96,-99.99,,,0.03,0,weatherlink.com 1.10,2013-09-23 00:31:00,
2013-09-22 20:46:00,76.8,76.0,29.80,NE,54,0.0,-999.0,96,-99.99,,,0.03,0,weatherlink.com 1.10,2013-09-23 00:46:00,
2013-09-22 21:01:00,76.5,76.0,29.81,NE,54,0.0,-999.0,97,-99.99,,,0.03,0,weatherlink.com 1.10,2013-09-23 01:01:00,
2013-09-22 21:16:00,76.3,75.0,29.81,NE,54,0.0,-999.0,97,-99.99,,,0.03,0,weatherlink.com 1.10,2013-09-23 01:16:00,
2013-09-22 21:31:00,76.0,75.0,29.81,NE,54,0.0,-999.0,98,-99.99,,,0.03,0,weatherlink.com 1.10,2013-09-23 01:31:00,
2013-09-22 21:46:00,75.8,75.0,29.82,NE,54,0.0,-999.0,98,-99.99,,,0.03,0,weatherlink.com 1.10,2013-09-23 01:46:00,
2013-09-22 22:01:00,75.6,75.0,29.82,NE,54,0.0,-999.0,99,-99.99,,,0.03,0,weatherlink.com 1.10,2013-09-23 02:01:00,
2013-09-22 22:16:00,75.6,76.0,29.83,NE,54,0.0,-999.0,100,-99.99,,,0.03,0,weatherlink.com 1.10,2013-09-23 02:16:00,
2013-09-22 22:31:00,75.4,75.0,29.83,NE,54,0.0,-999.0,100,-99.99,,,0.03,0,weatherlink.com 1.10,2013-09-23 02:31:00,
2013-09-22 22:46:00,75.4,75.0,29.83,NE,54,0.0,-999.0,100,-99.99,,,0.03,0,weatherlink.com 1.10,2013-09-23 02:46:00,
2013-09-22 23:01:00,75.4,75.0,29.83,NE,54,0.0,-999.0,100,-99.99,,,0.03,0,weatherlink.com 1.10,2013-09-23 03:01:00,
2013-09-22 23:16:00,75.4,75.0,29.84,NE,54,0.0,-999.0,100,-99.99,,,0.03,0,weatherlink.com 1.10,2013-09-23 03:16:00,
2013-09-22 23:31:00,75.3,75.0,29.84,NE,54,0.0,-999.0,100,-99.99,,,0.03,0,weatherlink.com 1.10,2013-09-23 03:31:00,
2013-09-22 23:46:00,75.1,75.0,29.84,NE,54,0.0,-999.0,100,-99.99,,,0.03,0,weatherlink.com 1.10,2013-09-23 03:46:00,